Time,TemperatureF,DewpointF,PressureIn,WindDirection,WindDirectionDegrees,WindSpeedMPH,WindSpeedGustMPH,Humidity,HourlyPrecipIn,Conditions,Clouds,dailyrainin,SoftwareType,DateUTC
2013-02-21 00:03:00,24.0,9.0,30.17,NW,313,6.0,-999.0,53,-99.99,,,-99.99,,2013-02-21 05:03:00,
2013-02-21 00:12:00,24.0,9.0,30.17,NW,313,6.0,-999.0,53,-99.99,,,-99.99,,2013-02-21 05:12:00,
2013-02-21 00:22:00,24.0,9.0,30.17,WNW,284,8.0,-999.0,53,-99.99,,,-99.99,,2013-02-21 05:22:00,
2013-02-21 00:35:00,24.0,9.0,30.16,West,268,6.0,-999.0,53,-99.99,,,-99.99,,2013-02-21 05:35:00,
2013-02-21 00:44:00,24.0,9.0,30.16,West,268,6.0,-999.0,53,-99.99,,,-99.99,,2013-02-21 05:44:00,
2013-02-21 00:53:00,24.0,9.0,30.16,NW,308,6.0,-999.0,52,-99.99,,,-99.99,,2013-02-21 05:53:00,
2013-02-21 01:01:00,24.0,10.0,30.16,West,270,4.0,-999.0,54,-99.99,,,-99.99,,2013-02-21 06:01:00,
2013-02-21 01:11:00,24.0,10.0,30.16,West,270,4.0,-999.0,54,-99.99,,,-99.99,,2013-02-21 06:11:00,
2013-02-21 01:21:00,24.0,9.0,30.16,WNW,296,4.0,-999.0,53,-99.99,,,-99.99,,2013-02-21 06:21:00,
2013-02-21 01:31:00,23.0,9.0,30.16,WNW,298,4.0,-999.0,54,-99.99,,,-99.99,,2013-02-21 06:31:00,
2013-02-21 01:41:00,23.0,9.0,30.16,WNW,298,4.0,-999.0,54,-99.99,,,-99.99,,2013-02-21 06:41:00,
2013-02-21 01:51:00,23.0,9.0,30.16,WNW,301,3.0,-999.0,54,-99.99,,,-99.99,,2013-02-21 06:51:00,
2013-02-21 02:01:00,23.0,9.0,30.16,WSW,248,6.0,-999.0,55,-99.99,,,-99.99,,2013-02-21 07:01:00,
2013-02-21 02:11:00,23.0,9.0,30.16,WSW,241,5.0,-999.0,55,-99.99,,,-99.99,,2013-02-21 07:11:00,
2013-02-21 02:21:00,23.0,9.0,30.16,WSW,241,5.0,-999.0,55,-99.99,,,-99.99,,2013-02-21 07:21:00,
2013-02-21 02:32:00,23.0,9.0,30.16,WNW,282,4.0,-999.0,55,-99.99,,,-99.99,,2013-02-21 07:32:00,
2013-02-21 02:42:00,23.0,10.0,30.16,NW,320,3.0,-999.0,56,-99.99,,,-99.99,,2013-02-21 07:42:00,
2013-02-21 02:52:00,23.0,10.0,30.16,NW,320,3.0,-999.0,56,-99.99,,,-99.99,,2013-02-21 07:52:00,
2013-02-21 03:01:00,23.0,9.0,30.16,WSW,239,4.0,-999.0,55,-99.99,,,-99.99,,2013-02-21 08:01:00,
2013-02-21 03:11:00,23.0,9.0,30.16,WNW,291,4.0,-999.0,55,-99.99,,,-99.99,,2013-02-21 08:11:00,
2013-02-21 03:21:00,23.0,9.0,30.16,WNW,291,4.0,-999.0,55,-99.99,,,-99.99,,2013-02-21 08:21:00,
2013-02-21 03:32:00,23.0,9.0,30.15,WNW,289,3.0,-999.0,55,-99.99,,,-99.99,,2013-02-21 08:32:00,
2013-02-21 03:42:00,23.0,9.0,30.15,WNW,289,3.0,-999.0,55,-99.99,,,-99.99,,2013-02-21 08:42:00,
2013-02-21 03:52:00,23.0,9.0,30.15,West,268,5.0,-999.0,55,-99.99,,,-99.99,,2013-02-21 08:52:00,
2013-02-21 04:02:00,23.0,8.0,30.15,WSW,258,6.0,-999.0,53,-99.99,,,-99.99,,2013-02-21 09:02:00,
2013-02-21 04:11:00,23.0,8.0,30.15,WSW,258,6.0,-999.0,53,-99.99,,,-99.99,,2013-02-21 09:11:00,
2013-02-21 04:22:00,23.0,8.0,30.16,West,281,4.0,-999.0,53,-99.99,,,-99.99,,2013-02-21 09:22:00,
2013-02-21 04:32:00,23.0,9.0,30.16,West,268,4.0,-999.0,54,-99.99,,,-99.99,,2013-02-21 09:32:00,
2013-02-21 04:42:00,23.0,9.0,30.16,NW,323,5.0,-999.0,54,-99.99,,,-99.99,,2013-02-21 09:42:00,
2013-02-21 04:52:00,23.0,9.0,30.16,NW,323,5.0,-999.0,54,-99.99,,,-99.99,,2013-02-21 09:52:00,
2013-02-21 05:01:00,23.0,9.0,30.16,NW,316,7.0,-999.0,54,-99.99,,,-99.99,,2013-02-21 10:01:00,
2013-02-21 05:11:00,23.0,9.0,30.16,NW,316,7.0,-999.0,54,-99.99,,,-99.99,,2013-02-21 10:11:00,
2013-02-21 05:21:00,23.0,10.0,30.17,West,265,9.0,-999.0,56,-99.99,,,-99.99,,2013-02-21 10:21:00,
2013-02-21 05:31:00,23.0,9.0,30.18,WSW,241,10.0,-999.0,55,-99.99,,,-99.99,,2013-02-21 10:31:00,
2013-02-21 05:41:00,23.0,9.0,30.18,WSW,241,10.0,-999.0,55,-99.99,,,-99.99,,2013-02-21 10:41:00,
2013-02-21 05:51:00,23.0,9.0,30.18,WNW,284,7.0,-999.0,54,-99.99,,,-99.99,,2013-02-21 10:51:00,
2013-02-21 06:01:00,23.0,8.0,30.18,West,265,9.0,-999.0,53,-99.99,,,-99.99,,2013-02-21 11:01:00,
2013-02-21 06:11:00,23.0,8.0,30.18,West,265,9.0,-999.0,53,-99.99,,,-99.99,,2013-02-21 11:11:00,
2013-02-21 06:21:00,23.0,8.0,30.18,West,280,6.0,-999.0,53,-99.99,,,-99.99,,2013-02-21 11:21:00,
2013-02-21 06:31:00,23.0,8.0,30.19,NW,312,6.0,-999.0,53,-99.99,,,-99.99,,2013-02-21 11:31:00,
2013-02-21 06:41:00,23.0,8.0,30.19,NW,312,6.0,-999.0,53,-99.99,,,-99.99,,2013-02-21 11:41:00,
2013-02-21 06:51:00,23.0,8.0,30.19,NNW,339,7.0,-999.0,52,-99.99,,,-99.99,,2013-02-21 11:51:00,
2013-02-21 07:01:00,23.0,8.0,30.19,NW,308,7.0,-999.0,52,-99.99,,,-99.99,,2013-02-21 12:01:00,
2013-02-21 07:11:00,23.0,8.0,30.19,NW,308,7.0,-999.0,52,-99.99,,,-99.99,,2013-02-21 12:11:00,
2013-02-21 07:21:00,23.0,8.0,30.19,NW,309,7.0,-999.0,53,-99.99,,,-99.99,,2013-02-21 12:21:00,
2013-02-21 07:32:00,23.0,8.0,30.19,NW,309,7.0,-999.0,53,-99.99,,,-99.99,,2013-02-21 12:32:00,
2013-02-21 07:42:00,23.0,8.0,30.20,WSW,258,5.0,-999.0,53,-99.99,,,-99.99,,2013-02-21 12:42:00,
2013-02-21 07:53:00,23.0,8.0,30.20,WSW,258,5.0,-999.0,53,-99.99,,,-99.99,,2013-02-21 12:53:00,
2013-02-21 08:02:00,23.0,8.0,30.21,NNW,329,7.0,-999.0,53,-99.99,,,-99.99,,2013-02-21 13:02:00,
2013-02-21 08:12:00,23.0,8.0,30.21,NNW,329,7.0,-999.0,53,-99.99,,,-99.99,,2013-02-21 13:12:00,
2013-02-21 08:22:00,24.0,9.0,30.21,WSW,250,6.0,-999.0,53,-99.99,,,-99.99,,2013-02-21 13:22:00,
2013-02-21 08:32:00,24.0,9.0,30.21,North,0,6.0,-999.0,52,-99.99,,,-99.99,,2013-02-21 13:32:00,
2013-02-21 08:42:00,24.0,9.0,30.21,North,0,6.0,-999.0,52,-99.99,,,-99.99,,2013-02-21 13:42:00,
2013-02-21 08:52:00,25.0,10.0,30.22,WSW,250,6.0,-999.0,53,-99.99,,,-99.99,,2013-02-21 13:52:00,
2013-02-21 09:02:00,25.0,9.0,30.23,NW,311,9.0,-999.0,51,-99.99,,,-99.99,,2013-02-21 14:02:00,
2013-02-21 09:11:00,25.0,9.0,30.23,NW,311,9.0,-999.0,51,-99.99,,,-99.99,,2013-02-21 14:11:00,
2013-02-21 09:22:00,25.0,10.0,30.22,WNW,301,7.0,-999.0,52,-99.99,,,-99.99,,2013-02-21 14:22:00,
2013-02-21 09:32:00,25.0,9.0,30.22,NW,308,8.0,-999.0,51,-99.99,,,-99.99,,2013-02-21 14:32:00,
2013-02-21 09:42:00,25.0,9.0,30.23,NW,305,9.0,-999.0,51,-99.99,,,-99.99,,2013-02-21 14:42:00,
2013-02-21 09:52:00,25.0,9.0,30.23,NW,305,9.0,-999.0,51,-99.99,,,-99.99,,2013-02-21 14:52:00,
2013-02-21 10:02:00,25.0,9.0,30.23,North,357,11.0,-999.0,51,-99.99,,,-99.99,,2013-02-21 15:02:00,
2013-02-21 10:12:00,25.0,9.0,30.23,North,357,11.0,-999.0,51,-99.99,,,-99.99,,2013-02-21 15:12:00,
2013-02-21 10:21:00,26.0,10.0,30.24,NW,312,7.0,-999.0,51,-99.99,,,-99.99,,2013-02-21 15:21:00,
2013-02-21 10:32:00,26.0,10.0,30.25,NW,326,7.0,-999.0,51,-99.99,,,-99.99,,2013-02-21 15:32:00,
2013-02-21 10:42:00,26.0,10.0,30.25,NW,326,7.0,-999.0,51,-99.99,,,-99.99,,2013-02-21 15:42:00,
2013-02-21 10:52:00,26.0,10.0,30.25,NNE,25,10.0,-999.0,50,-99.99,,,-99.99,,2013-02-21 15:52:00,
2013-02-21 11:01:00,26.0,10.0,30.25,NW,316,11.0,-999.0,50,-99.99,,,-99.99,,2013-02-21 16:01:00,
2013-02-21 11:12:00,27.0,11.0,30.24,WNW,301,8.0,-999.0,50,-99.99,,,-99.99,,2013-02-21 16:12:00,
2013-02-21 11:22:00,27.0,11.0,30.24,WNW,301,8.0,-999.0,50,-99.99,,,-99.99,,2013-02-21 16:22:00,
2013-02-21 11:32:00,27.0,11.0,30.24,West,275,6.0,-999.0,50,-99.99,,,-99.99,,2013-02-21 16:32:00,
2013-02-21 11:42:00,28.0,12.0,30.23,West,261,10.0,-999.0,50,-99.99,,,-99.99,,2013-02-21 16:42:00,
2013-02-21 11:52:00,28.0,12.0,30.23,West,261,10.0,-999.0,50,-99.99,,,-99.99,,2013-02-21 16:52:00,
2013-02-21 12:01:00,28.0,11.0,30.24,West,261,9.0,-999.0,49,-99.99,,,-99.99,,2013-02-21 17:01:00,
2013-02-21 12:11:00,30.0,13.0,30.24,West,277,9.0,-999.0,49,-99.99,,,-99.99,,2013-02-21 17:11:00,
2013-02-21 12:21:00,30.0,13.0,30.24,West,277,9.0,-999.0,49,-99.99,,,-99.99,,2013-02-21 17:21:00,
2013-02-21 12:32:00,32.0,14.0,30.23,WSW,246,8.0,-999.0,46,-99.99,,,-99.99,,2013-02-21 17:32:00,
2013-02-21 12:42:00,32.0,14.0,30.23,WSW,246,8.0,-999.0,46,-99.99,,,-99.99,,2013-02-21 17:42:00,
2013-02-21 12:52:00,32.0,14.0,30.24,NW,323,10.0,-999.0,46,-99.99,,,-99.99,,2013-02-21 17:52:00,
2013-02-21 13:02:00,33.0,13.0,30.24,WNW,289,10.0,-999.0,44,-99.99,,,-99.99,,2013-02-21 18:02:00,
2013-02-21 13:12:00,33.0,13.0,30.24,WNW,289,10.0,-999.0,44,-99.99,,,-99.99,,2013-02-21 18:12:00,
2013-02-21 13:22:00,33.0,13.0,30.22,NW,319,8.0,-999.0,43,-99.99,,,-99.99,,2013-02-21 18:22:00,
2013-02-21 13:32:00,33.0,13.0,30.22,NW,323,10.0,-999.0,43,-99.99,,,-99.99,,2013-02-21 18:32:00,
2013-02-21 13:42:00,33.0,13.0,30.22,NW,323,10.0,-999.0,43,-99.99,,,-99.99,,2013-02-21 18:42:00,
2013-02-21 13:52:00,34.0,15.0,30.22,NW,325,9.0,-999.0,45,-99.99,,,-99.99,,2013-02-21 18:52:00,
2013-02-21 14:01:00,34.0,14.0,30.22,NW,320,8.0,-999.0,43,-99.99,,,-99.99,,2013-02-21 19:01:00,
2013-02-21 14:12:00,34.0,14.0,30.22,NW,320,8.0,-999.0,43,-99.99,,,-99.99,,2013-02-21 19:12:00,
2013-02-21 14:21:00,34.0,15.0,30.22,North,0,8.0,-999.0,45,-99.99,,,-99.99,,2013-02-21 19:21:00,
2013-02-21 14:32:00,34.0,14.0,30.22,NW,311,11.0,-999.0,44,-99.99,,,-99.99,,2013-02-21 19:32:00,
2013-02-21 14:42:00,34.0,14.0,30.22,NW,311,11.0,-999.0,44,-99.99,,,-99.99,,2013-02-21 19:42:00,
2013-02-21 14:52:00,34.0,14.0,30.22,NW,309,12.0,-999.0,43,-99.99,,,-99.99,,2013-02-21 19:52:00,
2013-02-21 15:01:00,34.0,15.0,30.22,WNW,302,7.0,-999.0,45,-99.99,,,-99.99,,2013-02-21 20:01:00,
2013-02-21 15:11:00,34.0,14.0,30.23,WNW,294,7.0,-999.0,43,-99.99,,,-99.99,,2013-02-21 20:11:00,
2013-02-21 15:21:00,34.0,14.0,30.23,WNW,294,7.0,-999.0,43,-99.99,,,-99.99,,2013-02-21 20:21:00,
2013-02-21 15:32:00,34.0,14.0,30.23,NNW,344,10.0,-999.0,43,-99.99,,,-99.99,,2013-02-21 20:32:00,
2013-02-21 15:42:00,34.0,14.0,30.23,NNW,344,10.0,-999.0,43,-99.99,,,-99.99,,2013-02-21 20:42:00,
2013-02-21 15:53:00,34.0,14.0,30.23,South,179,9.0,-999.0,44,-99.99,,,-99.99,,2013-02-21 20:53:00,
2013-02-21 16:02:00,34.0,14.0,30.23,NNW,336,8.0,-999.0,44,-99.99,,,-99.99,,2013-02-21 21:02:00,
2013-02-21 16:12:00,34.0,13.0,30.23,North,0,9.0,-999.0,42,-99.99,,,-99.99,,2013-02-21 21:12:00,
2013-02-21 16:22:00,34.0,13.0,30.23,North,0,9.0,-999.0,42,-99.99,,,-99.99,,2013-02-21 21:22:00,
2013-02-21 16:32:00,34.0,14.0,30.23,NNW,332,10.0,-999.0,43,-99.99,,,-99.99,,2013-02-21 21:32:00,
2013-02-21 16:42:00,33.0,14.0,30.22,North,0,9.0,-999.0,45,-99.99,,,-99.99,,2013-02-21 21:42:00,
2013-02-21 16:52:00,33.0,14.0,30.22,North,0,9.0,-999.0,45,-99.99,,,-99.99,,2013-02-21 21:52:00,
2013-02-21 17:01:00,33.0,13.0,30.23,NW,316,10.0,-999.0,43,-99.99,,,-99.99,,2013-02-21 22:01:00,
2013-02-21 17:11:00,33.0,13.0,30.23,NW,316,10.0,-999.0,43,-99.99,,,-99.99,,2013-02-21 22:11:00,
2013-02-21 17:21:00,33.0,13.0,30.24,NW,316,7.0,-999.0,44,-99.99,,,-99.99,,2013-02-21 22:21:00,
2013-02-21 17:32:00,33.0,13.0,30.24,NW,322,9.0,-999.0,44,-99.99,,,-99.99,,2013-02-21 22:32:00,
2013-02-21 17:42:00,32.0,13.0,30.27,NW,318,5.0,-999.0,45,-99.99,,,-99.99,,2013-02-21 22:42:00,
2013-02-21 17:52:00,32.0,13.0,30.27,NW,318,5.0,-999.0,45,-99.99,,,-99.99,,2013-02-21 22:52:00,
2013-02-21 18:01:00,32.0,14.0,30.28,WNW,296,3.0,-999.0,46,-99.99,,,-99.99,,2013-02-21 23:01:00,
2013-02-21 18:11:00,32.0,14.0,30.28,WNW,296,3.0,-999.0,46,-99.99,,,-99.99,,2013-02-21 23:11:00,
2013-02-21 18:21:00,32.0,14.0,30.28,West,268,3.0,-999.0,46,-99.99,,,-99.99,,2013-02-21 23:21:00,
2013-02-21 18:32:00,30.0,13.0,30.30,West,274,3.0,-999.0,49,-99.99,,,-99.99,,2013-02-21 23:32:00,
2013-02-21 18:42:00,30.0,13.0,30.30,West,274,3.0,-999.0,49,-99.99,,,-99.99,,2013-02-21 23:42:00,
2013-02-21 18:52:00,30.0,14.0,30.31,WNW,295,0.0,-999.0,50,-99.99,,,-99.99,,2013-02-21 23:52:00,
2013-02-21 19:02:00,29.0,13.0,30.32,NNW,333,0.0,-999.0,51,-99.99,,,-99.99,,2013-02-22 00:02:00,
2013-02-21 19:11:00,29.0,13.0,30.32,NNW,333,0.0,-999.0,51,-99.99,,,-99.99,,2013-02-22 00:11:00,
2013-02-21 19:22:00,29.0,14.0,30.33,NNW,333,0.0,-999.0,52,-99.99,,,-99.99,,2013-02-22 00:22:00,
2013-02-21 19:32:00,29.0,14.0,30.33,NNW,333,0.0,-999.0,53,-99.99,,,-99.99,,2013-02-22 00:32:00,
2013-02-21 19:42:00,29.0,14.0,30.33,NNW,333,0.0,-999.0,53,-99.99,,,-99.99,,2013-02-22 00:42:00,
2013-02-21 19:52:00,28.0,13.0,30.33,NW,313,0.0,-999.0,53,-99.99,,,-99.99,,2013-02-22 00:52:00,
2013-02-21 20:01:00,28.0,14.0,30.34,WNW,302,0.0,-999.0,54,-99.99,,,-99.99,,2013-02-22 01:01:00,
2013-02-21 20:11:00,28.0,14.0,30.34,WNW,302,0.0,-999.0,54,-99.99,,,-99.99,,2013-02-22 01:11:00,
2013-02-21 20:22:00,28.0,14.0,30.33,NW,304,0.0,-999.0,55,-99.99,,,-99.99,,2013-02-22 01:22:00,
2013-02-21 20:32:00,27.0,13.0,30.35,NW,304,0.0,-999.0,55,-99.99,,,-99.99,,2013-02-22 01:32:00,
2013-02-21 20:42:00,27.0,13.0,30.35,NW,304,0.0,-999.0,55,-99.99,,,-99.99,,2013-02-22 01:42:00,
2013-02-21 20:52:00,27.0,13.0,30.35,NW,304,0.0,-999.0,56,-99.99,,,-99.99,,2013-02-22 01:52:00,
2013-02-21 21:02:00,27.0,14.0,30.35,West,274,1.0,-999.0,57,-99.99,,,-99.99,,2013-02-22 02:02:00,
2013-02-21 21:11:00,27.0,14.0,30.35,WNW,287,0.0,-999.0,57,-99.99,,,-99.99,,2013-02-22 02:11:00,
2013-02-21 21:21:00,27.0,14.0,30.35,WNW,287,0.0,-999.0,57,-99.99,,,-99.99,,2013-02-22 02:21:00,
2013-02-21 21:32:00,26.0,13.0,30.35,WNW,287,0.0,-999.0,57,-99.99,,,-99.99,,2013-02-22 02:32:00,
2013-02-21 21:42:00,26.0,13.0,30.35,WNW,287,0.0,-999.0,58,-99.99,,,-99.99,,2013-02-22 02:42:00,
2013-02-21 21:52:00,26.0,13.0,30.35,WNW,287,0.0,-999.0,58,-99.99,,,-99.99,,2013-02-22 02:52:00,
2013-02-21 22:02:00,26.0,14.0,30.35,WNW,287,0.0,-999.0,59,-99.99,,,-99.99,,2013-02-22 03:02:00,
2013-02-21 22:11:00,26.0,14.0,30.35,WNW,287,0.0,-999.0,59,-99.99,,,-99.99,,2013-02-22 03:11:00,
2013-02-21 22:21:00,26.0,14.0,30.35,WNW,287,0.0,-999.0,59,-99.99,,,-99.99,,2013-02-22 03:21:00,
2013-02-21 22:32:00,25.0,13.0,30.35,WNW,287,0.0,-999.0,60,-99.99,,,-99.99,,2013-02-22 03:32:00,
2013-02-21 22:42:00,25.0,13.0,30.35,WNW,287,0.0,-999.0,60,-99.99,,,-99.99,,2013-02-22 03:42:00,
2013-02-21 22:51:00,25.0,13.0,30.35,WNW,287,0.0,-999.0,61,-99.99,,,-99.99,,2013-02-22 03:51:00,
2013-02-21 23:02:00,25.0,14.0,30.35,WNW,287,0.0,-999.0,62,-99.99,,,-99.99,,2013-02-22 04:02:00,
2013-02-21 23:11:00,25.0,14.0,30.36,WNW,287,0.0,-999.0,62,-99.99,,,-99.99,,2013-02-22 04:11:00,
2013-02-21 23:21:00,25.0,14.0,30.36,WNW,287,0.0,-999.0,62,-99.99,,,-99.99,,2013-02-22 04:21:00,
2013-02-21 23:32:00,25.0,14.0,30.36,WNW,287,0.0,-999.0,62,-99.99,,,-99.99,,2013-02-22 04:32:00,
2013-02-21 23:42:00,24.0,14.0,30.36,WNW,287,0.0,-999.0,65,-99.99,,,-99.99,,2013-02-22 04:42:00,
2013-02-21 23:51:00,24.0,14.0,30.36,WNW,287,0.0,-999.0,65,-99.99,,,-99.99,,2013-02-22 04:51:00,